www.pogodaiklimat.ru

Погода и климат >> Архив погоды >> Индия >> Veraval


ПОГОДА в Veraval

  • Прогноз погоды в Veraval
  • Монитор погоды в Veraval
  • Климат города

АРХИВ ПОГОДЫ в Veraval

Время (UTC), дата Ветер
(напр.,м/с)
 
Видим.   Явления Облачность Т
(С)
Тd
(С)
f
(%)
Тe
(С)
Тes
(С)
Комфортность P
(гПа)
Po
(гПа)
Тmin
(С)
Tmax
(С)
R
(мм)
R24
(мм)
S
(см)
18 19.04 З 1 4000 м ясно +27.6 +24.4 83 +39 +39 очень
душно
1008.3 1008.0
21 19.04 штиль 0 4000 м ясно +26.6 +24.3 87 +37 +37 очень
душно
1006.8 1007.0
00 20.04 штиль 0 4000 м ясно +26.2 +12.1 41 +36 +36 очень
душно
1006.4 1006.0
03 20.04 штиль 0 10 км ясно +28.6 0.0 16 +26 +33 жарко 1008.2 1008.0 +25.9
06 20.04 З 2 10 км ясно +31.8 0.0 13 +29 +50 жарко 1009.3 1009.0
09 20.04 З 3 10 км ясно +32.8 0.0 12 +29 +44 жарко 1008.5 1009.0
12 20.04 З 3 10 км ясно +31.2 0.0 13 +28 +31 жарко 1007.6 1008.0 +33.2
15 20.04 З 1 4000 м ясно +28.8 +13.0 38 +44 +44 опасность
перегрева
1008.4 1008.0
18 20.04 З 1 4000 м 5/5 600 м
[Sc]
+28.2 +25.9 87 +42 +42 опасность
перегрева
1009.1 1009.0
21 20.04 штиль 0 4000 м 4/4 600 м
[Sc]
+27.8 +25.8 89 +41 +41 опасность
перегрева
1008.7 1009.0
00 21.04 штиль 0 4000 м 3/3 600 м
[Sc]
+27.2 +25.2 89 +39 +39 очень
душно
1008.7 1009.0
03 21.04 штиль 0 10 км 3/3 600 м
[Sc]
+29.0 +12.5 36 +26 +31 жарко 1010.2 1010.0 +26.4
06 21.04 З 3 10 км ясно +31.4 0.0 13 +28 +46 жарко 1011.0 1011.0
09 21.04 З 4 10 км ясно +31.8 0.0 13 +29 +41 жарко 1008.9 1009.0
12 21.04 З 3 10 км ясно +30.4 +12.6 34 +27 +30 жарко 1007.5 1008.0 +32.0
15 21.04 З 1 4000 м ясно +28.0 +24.6 82 +40 +40 очень
душно
1008.2 1008.0
18 21.04 С 1 4000 м ясно +26.0 +22.8 83 +35 +35 очень
душно
1009.6 1010.0
21 21.04 штиль 0 4000 м ясно +24.8 +22.7 88 +33 +33 очень
душно
1008.7 1009.0
00 22.04 штиль 0 4000 м ясно +23.6 +21.5 88 +30 +30 очень
душно
1008.5 1009.0
03 22.04 С 1 10 км ясно +25.8 +10.5 38 +24 +30 комфорт 1010.2 1010.0 +22.9
06 22.04 З 2 10 км ясно +31.4 0.0 13 +28 +48 жарко 1010.7 1011.0
09 22.04 З 4 10 км ясно +31.0 0.0 14 +28 +40 жарко 1008.7 1009.0
12 22.04 З 4 10 км ясно +30.0 0.0 14 +27 +29 жарко 1007.4 1007.0 +31.5
15 22.04 штиль 0 4000 м ясно +28.2 +12.4 38 +41 +41 опасность
перегрева
1008.8 1009.0
18 22.04 штиль 0 4000 м ясно +27.2 +24.6 86 +39 +39 очень
душно
1010.3 1010.0
21 22.04 СЗ 1 4000 м ясно +26.0 +24.0 89 +36 +36 очень
душно
1009.3 1009.0
00 23.04 штиль 0 4000 м ясно +24.8 +23.3 91 +33 +33 очень
душно
1009.1 1009.0
03 23.04 штиль 0 10 км ясно +26.0 +11.5 40 +24 +31 комфорт 1010.6 1011.0 +24.4
06 23.04 З 2 10 км ясно +32.4 0.0 13 +29 +50 жарко 1009.9 1010.0
09 23.04 ЮЗ 2 10 км ясно +32.2 0.0 13 +29 +49 жарко 1008.0 1008.0
12 23.04 З 2 10 км ясно +31.2 +12.9 33 +28 +32 жарко 1007.4 1007.0 +33.9
15 23.04 З 1 4000 м ясно +28.6 +25.8 85 +43 +43 опасность
перегрева
1009.2 1009.0
18 23.04 З 1 4000 м ясно +27.8 +25.8 89 +41 +41 опасность
перегрева
1010.5 1011.0
21 23.04 штиль 0 4000 м ясно +25.8 +24.1 90 +36 +36 очень
душно
1008.7 1009.0
00 24.04 штиль 0 4000 м ясно +24.2 +22.7 91 +32 +32 очень
душно
1008.9 1009.0
03 24.04 З 1 10 км ясно +25.4 +11.1 41 +24 +30 комфорт 1010.9 1011.0 +23.1
06 24.04 З 2 10 км ясно +29.6 0.0 15 +27 +27 жарко 1010.6 1011.0
09 24.04 З 2 10 км ясно +32.8 0.0 12 +29 +48 жарко 1008.8 1009.0
12 24.04 З 3 10 км ясно +31.0 0.0 14 +28 +31 жарко 1007.2 1007.0 +36.8
15 24.04 З 3 4000 м ясно +28.4 +11.5 35 +39 +39 очень
душно
1008.5 1009.0
18 24.04 СЗ 2 4000 м ясно +27.2 +23.1 78 +36 +36 очень
душно
1009.5 1010.0
21 24.04 З 2 4000 м ясно +25.6 +23.6 89 +35 +35 очень
душно
1008.1 1008.0
00 25.04 штиль 0 4000 м ясно +24.2 +23.0 93 +32 +32 очень
душно
1008.1 1008.0
03 25.04 З 2 10 км ясно +26.4 +11.4 39 +25 +30 комфорт 1009.8 1010.0 +24.1
06 25.04 З 2 10 км ясно +30.0 0.0 14 +27 +47 жарко 1010.4 1010.0
09 25.04 З 3 10 км ясно +30.6 0.0 14 +28 +44 жарко 1008.3 1008.0
12 25.04 З 3 10 км ясно +29.6 +12.4 35 +27 +30 жарко 1007.0 1007.0 +31.0
15 25.04 З 2 4000 м ясно +27.4 +24.8 86 +39 +39 очень
душно
1008.1 1008.0
18 25.04 З 1 4000 м ясно +26.6 +24.6 89 +38 +38 очень
душно
1008.8 1009.0
21 25.04 С 1 4000 м 3/3 600 м
[Sc]
+25.6 +23.6 89 +35 +35 очень
душно
1007.4 1007.0
00 26.04 штиль 0 4000 м ясно +25.0 +11.6 43 +33 +33 очень
душно
1007.2 1007.0
03 26.04 З 2 10 км 6/6 600 м
[Cu Sc]
+27.4 0.0 17 +25 +27 комфорт 1009.3 1009.0 +25.0
06 26.04 З 3 10 км ясно +30.4 0.0 14 +27 +45 жарко 1009.7 1010.0
09 26.04 З 3 10 км ясно +30.8 0.0 14 +28 +44 жарко 1007.3 1007.0
12 26.04 З 3 10 км ясно +29.8 0.0 15 +27 +30 жарко 1005.8 1006.0 +31.3
15 26.04 З 3 4000 м ясно +27.6 +24.7 84 +39 +39 очень
душно
1007.1 1007.0

 

Местоположение метеостанции Veraval (Gujarat, Индия): широта 20.90 долгота 70.37 высота над уровнем моря 8 м.

В архиве по умолчанию представлена погода в Veraval за последнюю неделю. Архивные данные за месяц целиком и за предыдущие месяцы, начиная с января 2011 года, Вы можете получить, выбрав интересующий диапазон дат из раскрывающегося списка и нажав кнопку "Ввод!".


*Определитесь, кто Вы:
робот инопланетянин человек

Внимание! Время в таблицах - всемирное. Для получения местного времени необходимо прибавить поправку, которая в Veraval равна 5.5 ч.

Смотрите также архив погоды в соседних городах и на ближайших метеорологических станциях:

Погода в Diu (Daman and Diu, Индия) (61 км)
Погода в Porbandar (Gujarat, Индия) (111 км)
Погода в Amreli (Gujarat, Индия) (118 км)
Погода в Mahuva (Gujarat, Индия) (148 км)
Погода в Rajkot (Gujarat, Индия) (161 км)
Погода в Dwarka (Gujarat, Индия) (211 км)
Погода в Bhaunagar (Gujarat, Индия) (212 км)
Погода в Okha (Gujarat, Индия) (218 км)
Погода в New Kandla (Gujarat, Индия) (234 км)
Погода в Surendranagar (Gujarat, Индия) (240 км)

Пояснения к столбцам:

Ветер - указаны скорость ветра в м/с - средняя за 10 мин, порывы в срок и между сроками (в фигурных скобках) и направление, откуда дует ветер: С - северный, СВ - северо-восточный, В - восточный, ЮВ - юго-восточный, Ю - южный, ЮЗ - юго-западный, З - западный, СЗ - северо-западный.
Видимость - горизонтальная дальность видимости в метрах или километрах. При видимости от 1 до 10 км при отсутствии осадков обычно наблюдается дымка, при ухудшении видимости до 1 км и менее - туман. В сухую погоду видимость может ухудшаться дымом, пылью или мглою.
Явления - указаны атмосферные явления, наблюдавшиеся в срок или в последний час перед сроком; фигурными скобками обозначены явления, наблюдавшиеся между сроками (за 1-3 часа до срока); квадратными скобками обозначены град или гололедные отложения с указанием их диаметра в мм.
Облачность - указаны через наклонную черту общая и нижняя облачность в баллах и высота нижней границы облаков в метрах; квадратными скобками обозначены формы облаков: Ci - перистые, Cs - перисто-слоистые, Cc - перисто-кучевые, Ac - высококучевые, As - высокослоистые, Sc - слоисто-кучевые, Ns - слоисто-дождевые, Cu - кучевые, Cb - кучево-дождевые. Подробнее классификацию облаков см. в Атласе облаков (PDF).
T - Температура воздуха - температура, измеренная на высоте 2 м над землей.
Td - Температура точки росы - температура, при понижении до которой содержащийся в воздухе водяной пар достигнет насыщения.
f - Относительная влажность воздуха - влажноcть воздуха, измеренная на высоте 2 м над землей.
Te - Эффективная температура - температура, которую ощущает одетый по сезону человек в тени. Характеристика душности погоды. При расчете учитывается влияние влажности воздуха и скорости ветра на теплоощущения человека.
Tes - Эффективная температура на солнце - температура, которую ощущает человек, с поправкой на солнечный нагрев. Характеристика знойности погоды. Зависит от высоты солнца над горизонтом, облачности и скорости ветра. Ночью, в пасмурную погоду, а также при ветре 12 м/с и более поправка равна нулю.
P - Атмосферное давление - приведенное к уровню моря атмосферное давление.
Po - Атмосферное давление - измеренное на уровне метеостанции атмосферное давление.
Tmin - Минимальная температура - минимум температуры воздуха на высоте 2 м над землей.
Tmax - Максимальная температура - максимум температуры воздуха на высоте 2 м над землей.
R - Количество осадков - Количество выпавших осадков за период времени, мм. При наведении курсора мыши на число - период времени, за который выпало указанное количество осадков.
R24 - Количество осадков - Количество выпавших осадков за 24 часа, мм.
S - Снежный покров - Высота снежного покрова, см. При наведении курсора мыши на число - состояние снежного покрова и степень покрытия местности в баллах.